Zurück zum Katalog

METEOR 2-6 DEB

LostPO
NORAD 35426·DEBRIS·🇷🇺 Russia

Gestartet Sep 9, 1980 von Plesetsk Cosmodrome

Loading…

Nächste Überflüge (nächste 24 Stunden)

TLE

VeraltetSource: Space-Track

Epoche: Mar 24, 2023, 02:51 UTC

1 35426U 80073J   23083.11926863  .00016512  00000-0  54026-2 0  9994
2 35426  81.2405  11.1224 0017265 181.8784 178.2341 14.38319423925304

Verfolge METEOR 2-6 DEB in Echtzeit mit AllMySat

Download on the App Store